Location: *
(44.3925°N, 5.4708°E)
Time: 08:25:31
(UTC+00:00)

NOSS 0 Rocket - Pass Details

Date: 18 September 2019
Orbit: 935 x 955 km, 70.0° (Epoch: 19 October)

Event Time Altitude Azimuth Distance (km) Brightness Sun altitude
Rises 19:30:01 0° 331° (NNW) 3,620 7.8 -19.3°
Reaches altitude 10° 19:32:34 10° 329° (NNW) 2,674 7.1 -19.7°
Maximum altitude 19:38:44 69° 247° (WSW) 1,012 4.2 -20.7°
Enters shadow 19:42:56 21° 169° (S) 1,970 5.3 -21.4°
